[[{"header":{"parameterUnit":"m.s-1","parameterCategory":1,"la1":30.2991,"la2":30.254,"lo1":-89.0895,"lo2":-89.0444,"dy":0.0017,"dx":0.0017,"nx":28,"ny":28,"refTime":"2024-06-22T03:00:00:Z","depth":0,"parameterNumber":2,"parameterNumberName":"U-component_of_WINDS"},"data":[0,0,0,0,0,0,0,0,0,0,0,0,0,0,0,0,0,0,0,0,0,0,0,0,0,0,0,0,0,0,0,0,0,0,0,0,0,0,0,0,0,0,0,0,0,0,0,0,0,0,0,0,0,0,0,0,0,0,0.3617,0.3617,0,0.3615,0.3615,0.3615,0.3582,0.3581,0.358,0.358,0.3578,0.3578,0.3579,0,0,0,0,0,0,0,0,0,0,0,0,0,0.359,0.3591,0.3617,0.3617,0.3617,0.3615,0.3615,0.3615,0.3582,0.3581,0.358,0.3579,0.3577,0.3578,0.3579,0,0,0,0,0,0,0,0,0,0,0,0,0,0.3597,0.3591,0.3617,0.36,0.3599,0.3615,0.3615,0.3615,0.3583,0.3581,0.358,0.3579,0.3577,0.3578,0.3579,0.3612,0,0,0.3583,0.3583,0,0,0,0,0,0,0,0,0.3596,0.3598,0.3603,0.3601,0.36,0.3598,0.3605,0.3614,0.3583,0.3589,0.358,0.3578,0.3585,0.3586,0.3588,0.3612,0.3611,0.3583,0.3583,0.3584,0.3584,0,0,0,0,0,0,0,0.3596,0.3598,0.3616,0.3603,0.3601,0.3593,0.3592,0.3607,0.3594,0.3588,0.3586,0.3586,0.3584,0.3587,0.3588,0.3611,0.3583,0.3584,0.3584,0.3585,0.3661,0.3663,0,0,0,0,0,0,0.3598,0.3597,0.3616,0.3616,0.3595,0.3594,0.3593,0.36,0.3594,0.3592,0.3587,0.3584,0.3586,0.3587,0.3588,0.3625,0.3584,0.3585,0.3586,0.366,0.3662,0.3663,0,0,0,0,0,0,0.3598,0.36,0.3616,0.3606,0.3608,0.3596,0.3603,0.36,0.3603,0.3593,0.3591,0.3592,0.3585,0.3586,0.3606,0.3625,0.3585,0.3586,0.3658,0.366,0.3662,0.3701,0,0,0,0,0,0,0.3597,0.36,0.3612,0.3607,0.3608,0.3635,0.3604,0.3601,0.3605,0.3602,0.3598,0.3596,0.3584,0.3604,0.3607,0.3625,0.3587,0.3657,0.3659,0.3662,0.3698,0.3704,0.3709,0,0,0,0,0,0.3596,0.3623,0.3613,0.3616,0.3624,0.3636,0.3637,0.3623,0.3607,0.3619,0.3613,0.3596,0.3622,0.3607,0.3609,0.3628,0.3655,0.3658,0.3661,0.3695,0.3702,0.3709,0,0,0,0,0,0,0.3631,0.3622,0.3611,0.3637,0.3638,0.363,0.3645,0.3632,0.3637,0.3633,0.3616,0.3615,0.3638,0.3635,0.3618,0.3659,0.3636,0.364,0.366,0.3667,0.3673,0.3673,0.3588,0,0,0,0,0,0.3642,0.3653,0.3644,0.3668,0.3669,0.3657,0.3662,0.3652,0.3652,0.3652,0.3647,0.3647,0.3655,0.3661,0.3668,0.3697,0.3696,0.3711,0.3717,0.3722,0.3725,0.374,0.3747,0.3673,0.3673,0.3673,0,0,0.3664,0.366,0.3668,0.3675,0.3674,0.3686,0.3658,0.3671,0.368,0.3654,0.3672,0.3668,0.3668,0.3692,0.3703,0.3691,0.3745,0.3726,0.3729,0.373,0.3744,0.3751,0.3757,0.3675,0.3675,0.3675,0,0,0.371,0.3709,0.3728,0.3728,0.3728,0.372,0.3725,0.372,0.3716,0.3735,0.3715,0.3725,0.374,0.374,0.3742,0.3789,0.3774,0.3792,0.3821,0.3836,0.3842,0.3847,0.3863,0.387,0.3795,0.3795,0.3795,0,0.3738,0.3755,0.374,0.3755,0.3759,0.3736,0.3755,0.3756,0.3758,0.376,0.3747,0.3765,0.3763,0.3787,0.3798,0.3801,0.3806,0.3792,0.3842,0.3847,0.3852,0.3867,0.3874,0.3798,0.3797,0.3797,0.3797,0,0.3789,0.3801,0.3817,0.3819,0.3825,0.3842,0.383,0.3837,0.3826,0.3819,0.3838,0.3835,0.3841,0.3846,0.3835,0.3869,0.3861,0.3845,0.3821,0.3861,0.3876,0.3881,0.3801,0.38,0.3799,0.3799,0,0,0.3857,0.3851,0.3857,0.3858,0.3856,0.3865,0.3881,0.3887,0.3894,0.3896,0.3909,0.3922,0.3907,0.3909,0.3899,0.3912,0.3949,0.3894,0.3894,0.3904,0.3985,0.3997,0.4005,0.3939,0.394,0.3941,0.3986,0,0.3901,0.3929,0.3916,0.3945,0.3956,0.3935,0.3949,0.3949,0.3943,0.3952,0.3945,0.3955,0.3935,0.3936,0.3948,0.3942,0.3965,0.3939,0.3951,0.3951,0.3951,0.4012,0.4025,0.4067,0.3991,0.3992,0.3993,0,0.3957,0.3962,0.3992,0.3988,0.3992,0.4005,0.401,0.4018,0.4018,0.4013,0.4016,0.4002,0.4017,0.3994,0.4015,0.3997,0.4001,0.3999,0.4,0.4001,0.3974,0.4014,0.408,0.4086,0.4001,0.4001,0.4,0,0.4003,0.4017,0.4037,0.4038,0.4034,0.4044,0.4042,0.4041,0.4045,0.4049,0.4052,0.4058,0.4061,0.4066,0.4054,0.4038,0.4077,0.4052,0.4073,0.4073,0.4082,0.4081,0.4149,0.4085,0.4085,0.4085,0.4085,0,0.4054,0.4073,0.4058,0.407,0.4091,0.4076,0.4097,0.4093,0.4092,0.4103,0.4085,0.4095,0.4079,0.4088,0.4079,0.4098,0.41,0.4096,0.4093,0.4097,0.4098,0.41,0.4096,0.4087,0.4086,0.4086,0.4086,0,0.4109,0.4099,0.4119,0.4114,0.4113,0.4129,0.4124,0.4135,0.4128,0.4142,0.4145,0.4134,0.4144,0.4133,0.4142,0.4135,0.4161,0.4154,0.4161,0.4159,0.418,0.4178,0.4252,0.4261,0.4191,0.4192,0.4192,0,0.4142,0.4156,0.4153,0.4159,0.4159,0.4169,0.4174,0.416,0.4165,0.4166,0.4177,0.4186,0.4191,0.4208,0.4201,0.4208,0.42,0.4226,0.4201,0.4205,0.4201,0.42,0.4201,0.4231,0.4231,0.4232,0.4233,0,0.4201,0.4196,0.4204,0.421,0.4216,0.422,0.4223,0.4229,0.4215,0.4222,0.4232,0.4236,0.4246,0.4254,0.4259,0.4257,0.4243,0.424,0.4246,0.425,0.4253,0.4252,0.4174,0.4239,0.4238,0.4238,0.4237,0.4237,0.4246,0.4258,0.4257,0.4266,0.4267,0.427,0.428,0.4275,0.4283,0.429,0.4281,0.4294,0.4293,0.4298,0.4298,0.4307,0.4296,0.4304,0.4306,0.4308,0.4311,0.4252,0.4308,0.4308,0.4308,0.4308,0.4308,0,0.4304,0.4303,0.4311,0.4316,0.4323,0.431,0.4312,0.4319,0.433,0.4331,0.4337,0.4349,0.4357,0.4351,0.4358,0.4367,0.436,0.4369,0.4368,0.4368,0.432,0.4315,0.4374,0.4374,0.4374,0.4374,0.4374,0.4374,0.4335,0.4354,0.4349,0.4368,0.4367,0.4379,0.4382,0.4384,0.4385,0.4399,0.4406,0.4402,0.44,0.4407,0.4414,0.4412,0.4415,0.4426,0.4422,0.4378,0.4371,0.4365,0.436,0.4427,0.4427,0.4468,0.4469,0.4469]},{"header":{"parameterUnit":"m.s-1","parameterCategory":1,"la1":30.2991,"la2":30.254,"lo1":-89.0895,"lo2":-89.0444,"dy":0.0017,"dx":0.0017,"nx":28,"ny":28,"refTime":"2024-06-22T03:00:00:Z","depth":0,"parameterNumber":3,"parameterNumberName":"V-component_of_WINDS"},"data":[0,0,0,0,0,0,0,0,0,0,0,0,0,0,0,0,0,0,0,0,0,0,0,0,0,0,0,0,0,0,0,0,0,0,0,0,0,0,0,0,0,0,0,0,0,0,0,0,0,0,0,0,0,0,0,0,0,0,4.3042,4.3042,0,4.3091,4.3091,4.3092,4.3046,4.3044,4.3042,4.304,4.3086,4.3089,4.3092,0,0,0,0,0,0,0,0,0,0,0,0,0,4.2904,4.2907,4.3042,4.3042,4.3043,4.3091,4.3091,4.3092,4.3046,4.3044,4.3041,4.3039,4.3085,4.3088,4.3092,0,0,0,0,0,0,0,0,0,0,0,0,0,4.296,4.2908,4.3042,4.3026,4.3025,4.3091,4.3091,4.3092,4.3046,4.3044,4.3041,4.3038,4.3084,4.3088,4.3092,4.3175,0,0,4.3106,4.3108,0,0,0,0,0,0,0,0,4.2956,4.2965,4.3028,4.3027,4.3026,4.3059,4.306,4.312,4.3047,4.3038,4.304,4.3037,4.3079,4.3084,4.3099,4.3177,4.3179,4.3106,4.3109,4.3111,4.3112,0,0,0,0,0,0,0,4.2953,4.2962,4.3061,4.3028,4.3028,4.3015,4.302,4.3071,4.3073,4.3039,4.3035,4.3042,4.3078,4.3095,4.31,4.318,4.3106,4.311,4.3113,4.3115,4.3328,4.3331,0,0,0,0,0,0,4.2951,4.2959,4.3059,4.3062,4.2984,4.302,4.3025,4.3051,4.3073,4.3073,4.3044,4.304,4.3088,4.3094,4.3101,4.3199,4.3111,4.3115,4.3118,4.3325,4.3329,4.3332,0,0,0,0,0,0,4.2948,4.2961,4.3057,4.301,4.3022,4.3025,4.3055,4.3054,4.307,4.3077,4.3077,4.3061,4.3087,4.3095,4.3157,4.32,4.3117,4.3121,4.3322,4.3327,4.3331,4.3396,0,0,0,0,0,0,4.2945,4.296,4.2992,4.3011,4.3024,4.3114,4.3058,4.3057,4.3079,4.3073,4.3093,4.3093,4.3085,4.3151,4.3162,4.3205,4.3124,4.3318,4.3324,4.3329,4.339,4.3403,4.3413,0,0,0,0,0,4.294,4.3008,4.2994,4.3006,4.3065,4.3117,4.3124,4.3115,4.3082,4.3114,4.3119,4.3093,4.3194,4.3158,4.3169,4.3214,4.3315,4.3322,4.3329,4.3385,4.34,4.3413,0,0,0,0,0,0,4.2991,4.301,4.2995,4.3071,4.3093,4.3109,4.3149,4.3131,4.3161,4.3154,4.314,4.3144,4.3211,4.3219,4.3178,4.3296,4.3249,4.3259,4.3288,4.3302,4.3313,4.331,4.3128,0,0,0,0,0,4.3012,4.3054,4.3067,4.3133,4.3145,4.3145,4.3168,4.3159,4.318,4.3189,4.3197,4.3218,4.3255,4.3279,4.3313,4.3391,4.3395,4.3428,4.3439,4.3449,4.3457,4.3499,4.3514,4.3355,4.3355,4.3355,0,0,4.3054,4.3069,4.3097,4.3144,4.316,4.3203,4.3153,4.32,4.3232,4.3195,4.3255,4.3263,4.3285,4.3356,4.3388,4.3365,4.3502,4.3457,4.3465,4.3468,4.3508,4.3523,4.3536,4.336,4.3359,4.3358,0,0,4.3153,4.3169,4.3226,4.3244,4.3269,4.3269,4.3283,4.3302,4.3306,4.3367,4.334,4.3376,4.344,4.3457,4.3473,4.358,4.3557,4.3591,4.3651,4.3692,4.3705,4.3716,4.3754,4.3768,4.36,4.36,4.36,0,4.3202,4.3267,4.3257,4.3307,4.3328,4.3299,4.3356,4.3373,4.3408,4.3422,4.3396,4.3476,4.3488,4.3563,4.359,4.3604,4.3619,4.3589,4.3704,4.3715,4.3725,4.3761,4.3775,4.3604,4.3603,4.3603,4.3603,0,4.3326,4.3371,4.3414,4.345,4.3476,4.3529,4.3527,4.3554,4.3543,4.3545,4.3607,4.3622,4.3658,4.3675,4.3664,4.3749,4.3734,4.3706,4.3659,4.3744,4.3778,4.3792,4.361,4.3608,4.3607,4.3606,0,0,4.3458,4.3489,4.3505,4.3522,4.3548,4.3582,4.3634,4.3671,4.3695,4.372,4.3762,4.3817,4.3792,4.3811,4.3801,4.3838,4.3922,4.3806,4.3806,4.3827,4.4016,4.4037,4.4053,4.3907,4.391,4.3912,4.4014,0,4.3558,4.365,4.3643,4.3728,4.377,4.3743,4.3788,4.3808,4.3812,4.3847,4.385,4.3889,4.3853,4.3865,4.39,4.3904,4.3959,4.3897,4.3945,4.3947,4.3941,4.407,4.4092,4.4188,4.4027,4.4029,4.4031,0,4.3687,4.3719,4.3809,4.383,4.3847,4.3888,4.3922,4.3956,4.3978,4.3978,4.4001,4.3985,4.4036,4.3988,4.4058,4.4015,4.4035,4.404,4.4043,4.4047,4.3994,4.4078,4.4219,4.4233,4.4052,4.405,4.4048,0,4.3775,4.3839,4.3902,4.3917,4.3943,4.3972,4.3984,4.4003,4.4027,4.4056,4.407,4.4105,4.4123,4.415,4.4144,4.4109,4.4215,4.4166,4.4215,4.4216,4.4238,4.4237,4.4384,4.4251,4.4251,4.4251,4.4251,0,4.3887,4.3943,4.3942,4.3981,4.4043,4.4034,4.4095,4.4103,4.4121,4.416,4.4138,4.4174,4.4164,4.42,4.4195,4.4254,4.4262,4.4263,4.4261,4.4265,4.4265,4.4277,4.427,4.4255,4.4254,4.4253,4.4252,0,4.3995,4.3997,4.4063,4.4083,4.4089,4.4134,4.415,4.4186,4.4188,4.4238,4.4248,4.4252,4.4293,4.429,4.4335,4.4332,4.4404,4.4394,4.4397,4.4395,4.4444,4.444,4.4605,4.4626,4.4479,4.4481,4.4482,0,4.4067,4.411,4.4135,4.416,4.4174,4.4215,4.4239,4.4232,4.4257,4.4287,4.4319,4.4359,4.439,4.4457,4.4462,4.4497,4.4488,4.4543,4.4493,4.4496,4.4488,4.4486,4.449,4.4553,4.4555,4.4556,4.4557,0,4.4194,4.4193,4.4229,4.4266,4.4296,4.4324,4.435,4.4372,4.4367,4.4396,4.4439,4.4464,4.4511,4.4551,4.4584,4.4595,4.4575,4.4573,4.4586,4.459,4.4591,4.4591,4.4424,4.4569,4.4568,4.4567,4.4566,4.4566,4.4286,4.4323,4.4347,4.4388,4.4407,4.4432,4.4467,4.4475,4.4511,4.455,4.4543,4.4591,4.4612,4.4655,4.4669,4.4706,4.4686,4.4705,4.471,4.4714,4.472,4.4585,4.4712,4.4712,4.4711,4.4711,4.4711,0,4.4412,4.4426,4.4465,4.4502,4.4535,4.4515,4.4543,4.4571,4.4614,4.4636,4.4668,4.4717,4.4755,4.4764,4.4801,4.4828,4.482,4.4838,4.4836,4.4838,4.4736,4.4721,4.4844,4.4844,4.4844,4.4844,4.4844,4.4844,4.4481,4.4544,4.4545,4.4617,4.463,4.4678,4.4696,4.4718,4.4736,4.4792,4.4825,4.4831,4.4848,4.4885,4.4919,4.4921,4.4935,4.4957,4.4955,4.4859,4.4846,4.4833,4.4819,4.496,4.496,4.5054,4.5055,4.5055]}]]